Temperature
22 22 22 22 21 21 21 20 20 20 20 20 20 19 19 19 19 19 19 19 19 19 19 19 19 19 19 19 19 19 19 19 19 19 19 19 19 19 19 19 19 19 19
22 22 22 22 22 21 21 21 20 20 20 20 20 20 19 19 19 19 19 19 19 19 19 19 19 19 19 19 19 19 19 19 18 18 19 19 19 19 19 19 19 19 19
23 22 22 22 22 21 21 21 20 20 20 20 20 19 19 19 19 19 19 19 19 19 19 19 19 19 19 19 19 19 19 19 18 18 18 18 18 19 19 19 19 19 19
23 23 22 22 22 22 21 21 21 20 20 20 20 20 20 19 19 19 19 19 19 19 19 19 19 19 19 19 19 19 18 18 18 18 18 18 18 18 18 19 19 19 19
23 23 23 22 22 22 21 21 21 20 20 20 20 20 20 20 19 19 19 19 19 19 19 19 19 19 19 19 19 19 18 18 18 18 18 18 18 18 18 18 19 19 19
23 23 23 23 22 22 21 21 21 21 20 20 20 20 20 19 19 19 19 19 19 19 19 19 19 19 19 19 19 19 19 18 18 18 18 18 18 18 18 18 18 18 19
23 23 23 22 22 22 21 21 21 21 20 20 20 20 20 20 19 19 19 19 19 19 19 19 19 19 19 19 19 19 19 18 18 18 18 18 18 18 18 18 18 18 18
23 23 23 23 22 22 22 22 21 21 21 20 20 20 20 20 19 19 19 19 19 19 19 19 19 19 19 19 19 18 18 18 18 18 18 18 18 18 18 18 18 18 18
23 23 23 23 22 22 22 22 22 21 21 21 20 20 20 20 20 19 19 19 19 19 19 19 19 19 19 19 18 18 18 18 18 18 18 18 18 18 18 18 18 18 18
23 23 23 23 22 22 22 22 22 21 21 21 20 20 20 20 20 19 19 19 19 19 19 19 19 19 19 18 18 18 18 18 18 18 18 18 18 18 18 18 18 17 17
23 23 23 22 22 22 22 22 21 21 21 21 20 20 20 20 19 19 19 19 19 19 19 19 18 18 18 18 18 18 18 18 18 18 18 18 18 18 18 18 17 17 17
23 23 23 22 22 22 22 22 21 21 21 20 20 20 20 20 19 19 19 19 19 19 18 18 18 18 18 18 18 18 18 18 18 18 18 18 17 17 17 17 17 17 17
23 22 22 22 21 21 21 21 21 21 21 20 20 20 20 19 19 19 19 19 19 18 18 18 18 18 18 18 18 17 17 17 17 17 17 17 17 17 17 17 17 17 17
22 22 22 22 21 21 21 21 21 21 20 20 20 20 20 19 19 19 19 19 19 18 18 18 18 18 18 18 17 17 17 17 17 17 17 17 17 17 17 17 17 17 16
22 22 22 21 21 21 21 21 20 20 20 20 19 19 19 19 19 19 19 19 19 18 18 18 18 18 17 17 17 17 17 17 17 17 17 17 17 17 17 17 17 16 16
22 22 21 21 21 21 20 20 20 20 20 20 19 19 19 19 19 18 18 18 18 18 18 18 17 17 17 17 17 17 17 17 17 17 17 16 17 17 16 16 16 16 16
21 21 21 21 21 20 20 20 20 20 20 19 19 19 19 18 18 18 18 18 18 17 17 17 17 17 17 17 17 17 17 16 16 16 16 16 16 16 16 16 16 16 16
21 21 21 21 20 20 20 20 19 19 19 19 19 19 18 18 18 18 17 17 17 17 17 17 17 17 17 17 16 16 16 16 16 16 16 16 16 16 16 16 16 16 16
21 21 21 20 20 19 19 19 19 19 18 18 18 18 18 18 18 17 17 17 17 17 17 17 16 16 16 16 16 16 16 16 16 16 16 16 16 16 16 15 15 15 15
20 20 20 20 19 19 19 18 18 18 18 18 18 18 18 18 17 17 17 17 17 16 16 16 16 16 16 16 16 16 16 16 16 16 16 16 15 15 15 15 15 15 15
19 19 19 19 19 19 18 18 18 18 17 17 17 17 17 17 17 17 17 16 16 16 16 16 16 16 16 16 15 15 15 15 15 15 15 15 15 15 15 15 15 14 14
19 19 18 18 18 18 18 17 17 17 17 17 16 16 16 16 16 16 16 16 16 16 16 15 15 15 15 15 15 15 15 15 15 15 15 15 15 14 14 14 14 14 14
18 18 18 17 17 17 17 17 17 16 16 16 16 16 16 16 15 15 15 15 15 15 15 15 15 15 15 15 15 15 14 14 14 15 14 14 14 14 14 14 14 14 13
17 17 17 17 17 16 16 16 16 16 16 15 15 15 15 15 15 15 15 15 15 15 15 15 15 15 15 15 14 14 14 14 14 14 14 14 14 14 13 13 13 13 13
16 16 16 16 16 16 15 15 15 15 15 15 15 15 15 14 14 14 14 14 14 14 14 14 14 14 14 14 14 14 14 14 14 13 13 13 13 13 13 13 12 12 12
16 16 15 15 15 15 15 15 15 14 14 14 14 14 14 14 14 14 14 14 14 14 14 14 14 14 14 14 13 13 13 13 13 13 13 13 12 12 12 12 12 12 12
Wind_Speed
11 11 12 13 11 10 9 9 8 7 6 4 3 3 2 2 2 3 6 7 6 6 4 2 2 1 1 1 2 1 1 1 1 1 2 3 3 2 3 3 3 5 9
10 11 11 12 12 12 10 9 9 8 7 5 4 3 3 2 2 3 4 7 7 6 5 4 3 2 1 1 1 1 0 1 0 1 1 3 4 3 3 3 3 4 5
16 14 13 13 12 13 13 11 9 8 7 6 3 2 1 0 0 2 3 4 7 6 5 4 3 3 3 2 2 2 2 1 2 1 2 1 2 3 3 3 3 3 3
14 14 14 14 14 13 12 10 10 8 7 7 5 5 4 4 4 4 3 4 5 6 6 5 4 3 3 3 3 3 2 2 1 1 1 3 3 2 3 4 3 3 3
15 16 15 15 13 12 11 10 9 8 8 7 7 6 5 4 3 3 4 4 4 5 5 5 4 4 3 4 4 3 3 3 3 2 1 1 1 2 2 3 4 4 3
13 13 12 12 11 11 10 10 9 8 8 8 8 8 7 6 4 4 4 4 3 3 4 4 4 4 4 4 4 4 3 3 3 2 2 2 2 2 2 3 3 4 4
12 12 12 12 12 12 11 10 10 9 9 8 8 8 7 7 7 6 6 5 4 4 5 5 4 4 5 4 4 4 3 3 3 3 3 3 3 2 3 2 2 3 3
11 12 13 13 13 13 12 11 11 10 9 9 9 7 7 5 5 5 5 5 5 5 5 5 5 5 5 5 4 4 4 3 4 4 3 3 3 3 3 3 2 2 3
10 10 10 10 10 12 12 12 12 10 10 10 8 7 7 6 6 5 5 4 4 5 5 5 5 6 6 5 5 4 4 4 4 4 4 3 3 3 3 3 3 3 2
8 8 8 8 7 8 9 10 10 11 9 9 8 8 7 7 6 5 5 5 5 5 5 4 5 5 5 5 5 4 4 4 4 4 3 3 3 3 2 2 3 3 4
9 8 7 7 6 6 6 6 8 8 8 9 8 7 6 6 6 5 6 6 5 5 5 5 5 5 5 5 5 5 5 5 5 5 4 5 4 3 3 2 1 2 2
7 7 7 6 6 5 4 5 6 7 8 8 7 7 6 6 6 6 6 5 5 6 6 5 5 6 6 5 6 7 6 6 7 6 5 6 4 4 4 2 2 2 2
7 7 6 6 5 5 5 4 4 6 6 7 7 6 6 6 6 7 6 6 6 5 5 5 6 6 6 6 6 7 7 7 7 6 6 6 5 5 4 3 3 2 2
7 7 6 5 5 5 5 4 3 4 5 5 6 7 8 7 7 7 6 6 6 6 6 6 6 6 6 6 6 6 7 6 6 6 7 7 6 6 5 4 4 3 2
6 7 6 5 4 4 3 3 3 3 4 5 5 7 7 6 5 5 5 5 5 6 5 5 5 5 5 6 6 6 7 6 7 6 6 7 7 7 6 4 4 3 2
6 6 7 7 5 5 4 3 2 2 3 4 5 5 4 4 5 5 4 4 4 4 3 4 5 5 6 7 8 7 6 6 7 7 7 7 6 6 6 6 5 5 4
5 5 6 6 6 5 5 4 3 2 2 2 3 3 4 5 5 4 3 4 5 4 4 5 5 5 6 7 7 8 6 6 6 7 6 6 6 5 4 4 4 4 5
4 4 4 4 4 4 4 3 3 2 2 2 2 3 4 4 4 3 4 4 4 4 5 5 5 5 6 6 6 6 6 5 6 6 7 7 6 5 5 4 2 2 3
4 3 3 4 3 3 3 3 3 2 1 1 2 3 4 4 4 4 5 4 3 4 5 4 4 5 6 6 6 5 3 4 6 6 6 6 6 8 7 5 4 3 3
3 2 3 4 3 2 3 3 2 1 1 2 2 2 3 3 5 5 5 4 3 5 5 5 5 6 6 7 6 5 3 4 4 4 5 7 8 9 8 6 6 5 5
3 3 3 3 1 1 3 3 1 1 2 2 1 1 2 3 4 4 4 4 4 5 5 5 5 5 6 6 7 6 4 4 4 4 4 4 7 9 9 8 7 8 6
3 3 3 2 1 2 3 2 0 2 1 1 1 2 3 3 2 3 4 4 4 5 5 4 5 5 5 5 7 8 8 6 4 4 4 4 6 7 8 7 7 7 5
2 2 2 1 1 1 2 2 2 2 0 0 2 3 3 3 3 3 4 4 4 4 5 4 5 5 4 4 7 8 9 8 5 4 5 5 6 5 5 6 7 6 4
1 1 2 1 1 2 0 1 2 1 1 1 2 3 3 3 3 2 3 4 4 5 5 5 5 5 4 3 3 3 4 5 4 2 2 3 3 3 3 2 3 4 4
0 1 1 1 1 2 2 3 2 1 1 2 3 3 3 3 3 3 3 4 5 5 6 6 5 5 5 6 7 5 4 3 3 2 1 1 1 1 1 1 2 2 2
1 1 0 0 2 2 3 3 3 2 1 2 3 3 3 3 3 3 4 5 5 6 6 7 6 5 6 6 6 7 6 5 5 4 2 3 3 4 4 3 2 2 2
Wind_Direction
180 171 168 166 164 166 165 165 161 168 161 158 162 161 187 200 202 203 202 205 206 201 192 200 218 200 185 216 225 214 309 301 289 359 326 318 304 274 245 240 234 229 226
172 173 169 169 172 171 173 172 173 173 174 175 173 171 173 193 201 210 208 208 204 203 201 192 206 203 189 229 232 161 337 304 334 132 44 343 334 318 274 258 235 239 238
179 177 173 173 173 177 180 182 183 177 177 172 155 147 110 58 246 222 217 216 202 201 200 194 196 203 185 205 223 200 182 243 288 165 146 153 259 297 308 292 270 255 235
180 180 177 177 179 183 181 179 178 174 174 169 168 177 189 203 218 212 213 225 214 211 206 197 194 200 195 207 221 197 191 184 249 280 215 196 188 206 301 309 297 277 242
183 183 181 180 179 178 178 178 175 178 178 178 182 188 203 214 217 211 212 225 233 228 216 199 192 201 203 208 213 210 203 193 200 219 234 238 224 191 195 281 306 313 284
179 181 180 175 175 176 179 178 176 184 185 184 187 193 199 204 204 212 216 224 233 239 233 213 201 206 208 210 212 210 210 210 206 211 205 194 214 229 206 239 272 286 287
173 172 172 175 176 177 180 180 181 189 189 187 192 196 198 199 206 210 211 212 220 228 233 228 217 217 214 208 201 203 216 216 211 216 216 209 215 210 196 207 253 270 284
175 175 177 178 180 182 183 182 186 194 194 193 198 200 197 201 209 207 204 210 215 223 226 224 223 221 213 210 198 205 217 214 218 231 225 226 231 209 198 197 199 269 294
169 176 175 178 181 184 187 190 189 194 196 198 198 199 199 202 208 209 209 218 224 229 224 222 225 223 214 209 200 210 221 222 226 234 236 235 243 228 222 208 189 186 242
149 157 166 175 183 183 185 190 191 194 194 193 199 206 206 208 207 204 215 223 226 231 223 225 225 225 221 217 208 213 218 219 236 237 241 249 247 244 237 224 209 192 194
151 156 159 160 156 156 170 179 188 191 190 192 198 203 202 207 206 212 222 225 227 226 226 228 225 221 219 219 217 224 225 230 243 248 238 247 245 242 243 236 223 208 185
144 152 154 146 145 149 159 181 187 190 194 190 189 200 202 202 206 219 228 228 230 231 228 227 226 224 223 219 219 226 229 228 237 243 241 248 247 241 242 230 232 229 207
124 125 127 135 150 161 170 178 181 193 189 183 187 201 211 210 215 225 227 226 230 237 234 226 225 229 227 222 226 228 233 232 234 234 236 243 238 240 240 230 234 235 227
135 131 137 146 158 166 173 173 192 192 184 184 192 207 218 221 222 225 228 229 227 232 236 233 229 227 227 226 230 233 236 239 236 229 231 234 229 232 233 232 231 226 223
133 137 150 161 161 160 172 182 200 194 187 189 207 221 225 223 217 219 224 229 228 233 234 234 239 236 234 237 230 231 236 236 235 234 234 234 228 230 227 227 213 201 205
140 145 150 152 159 169 176 177 191 195 185 198 220 228 225 216 210 214 217 221 227 231 227 232 241 243 247 248 235 225 235 233 232 234 237 238 233 235 228 225 212 195 202
130 129 151 159 164 171 169 169 180 174 175 213 229 219 210 209 215 216 213 217 220 221 230 236 240 246 251 254 247 234 227 227 227 230 232 239 235 216 213 224 229 234 230
132 133 141 158 171 169 164 165 149 143 162 202 222 218 210 210 210 214 220 220 215 220 231 240 241 245 255 254 256 248 232 233 235 230 225 224 226 219 195 197 218 247 257
143 148 144 139 143 151 162 145 139 140 149 202 228 229 216 214 211 219 230 229 224 237 242 238 240 246 258 250 244 236 229 236 243 239 229 214 219 226 204 189 208 241 268
114 114 99 95 118 150 138 124 130 140 230 247 250 263 237 226 225 225 228 233 229 236 247 247 246 243 249 250 238 221 221 238 250 253 244 227 219 220 206 194 197 219 240
107 103 86 80 97 122 106 100 91 238 248 248 271 303 260 241 239 234 229 230 233 236 239 245 252 248 244 243 231 218 216 233 239 245 248 243 227 219 216 205 205 217 215
100 105 98 71 47 88 102 90 312 267 289 343 346 331 307 278 275 248 250 249 243 245 249 251 262 257 245 233 230 221 222 225 224 234 239 241 234 225 217 214 218 212 199
102 109 115 84 11 55 117 127 264 256 234 301 295 297 305 297 286 262 260 271 261 253 254 245 250 261 255 245 239 232 235 234 229 238 238 236 227 221 221 221 211 195 190
106 104 99 72 343 334 338 227 252 248 205 252 276 282 288 293 296 282 253 247 249 250 249 243 241 248 248 241 235 239 245 246 245 263 252 232 218 211 213 211 209 202 197
98 112 127 145 297 318 309 298 295 290 287 280 281 285 283 283 288 286 271 256 247 239 238 238 226 224 239 239 217 209 219 215 208 180 164 164 176 208 216 223 222 219 215
65 48 36 285 284 296 304 303 302 288 283 293 285 278 279 279 274 279 299 302 279 278 260 244 235 237 233 231 222 218 221 211 181 159 183 204 209 212 209 209 214 217 224
Height
1531 1534 1536 1539 1541 1544 1546 1548 1550 1552 1554 1555 1556 1558 1559 1560 1561 1561 1562 1563 1564 1564 1564 1564 1565 1565 1565 1565 1565 1565 1565 1564 1564 1563 1562 1561 1561 1560 1560 1560 1560 1560 1561
1530 1532 1534 1537 1539 1541 1544 1546 1548 1550 1552 1554 1556 1557 1558 1559 1560 1561 1561 1562 1562 1563 1563 1563 1563 1564 1564 1564 1564 1564 1563 1563 1562 1562 1560 1560 1560 1559 1558 1559 1559 1559 1559
1525 1528 1531 1534 1537 1539 1542 1544 1546 1548 1550 1552 1554 1556 1557 1558 1558 1559 1560 1561 1561 1562 1562 1562 1562 1562 1562 1562 1562 1562 1562 1561 1561 1561 1561 1559 1558 1558 1557 1557 1557 1557 1557
1523 1525 1528 1531 1534 1537 1540 1542 1545 1546 1549 1551 1552 1553 1554 1555 1556 1557 1558 1559 1560 1560 1561 1561 1561 1561 1561 1561 1560 1560 1560 1560 1560 1559 1559 1559 1558 1557 1556 1556 1555 1555 1555
1520 1522 1525 1528 1532 1535 1538 1540 1543 1545 1547 1548 1550 1551 1552 1553 1555 1556 1556 1557 1558 1559 1559 1559 1559 1559 1559 1559 1559 1558 1558 1558 1558 1558 1558 1557 1557 1556 1555 1553 1553 1553 1552
1518 1521 1524 1527 1530 1533 1536 1538 1540 1542 1544 1546 1547 1549 1550 1551 1552 1553 1554 1555 1555 1556 1557 1557 1557 1556 1556 1556 1556 1556 1556 1556 1556 1556 1556 1555 1555 1554 1553 1552 1551 1550 1550
1515 1518 1522 1525 1527 1530 1533 1535 1537 1539 1541 1543 1545 1546 1547 1548 1549 1550 1551 1552 1553 1553 1554 1554 1554 1554 1554 1554 1554 1554 1554 1554 1553 1553 1553 1553 1553 1552 1552 1551 1550 1549 1548
1514 1516 1518 1521 1524 1527 1530 1532 1534 1536 1539 1540 1542 1543 1545 1546 1547 1548 1548 1549 1550 1551 1551 1552 1552 1551 1551 1551 1551 1551 1551 1551 1551 1551 1551 1550 1550 1550 1550 1549 1548 1547 1546
1512 1515 1517 1519 1522 1524 1527 1530 1531 1534 1536 1538 1539 1541 1542 1543 1544 1545 1546 1546 1547 1548 1548 1548 1548 1548 1548 1548 1548 1548 1548 1549 1548 1548 1548 1548 1548 1547 1547 1547 1546 1546 1543
1511 1514 1516 1519 1521 1523 1525 1527 1530 1531 1533 1535 1536 1537 1539 1540 1541 1542 1543 1543 1544 1544 1545 1545 1545 1545 1545 1545 1545 1545 1545 1546 1545 1545 1545 1545 1545 1544 1544 1543 1543 1543 1542
1511 1513 1515 1517 1519 1521 1523 1525 1527 1529 1531 1532 1534 1535 1536 1537 1537 1538 1539 1540 1541 1541 1541 1541 1541 1541 1541 1541 1542 1541 1542 1542 1543 1543 1542 1542 1542 1541 1541 1540 1540 1539 1539
1510 1512 1514 1516 1518 1519 1522 1523 1525 1527 1528 1529 1531 1532 1532 1533 1533 1534 1535 1536 1536 1537 1538 1538 1538 1538 1538 1538 1538 1538 1538 1538 1539 1539 1539 1539 1539 1538 1537 1537 1536 1536 1536
1510 1512 1514 1516 1517 1519 1521 1522 1523 1524 1525 1527 1527 1528 1528 1529 1529 1530 1531 1532 1532 1533 1534 1533 1533 1533 1533 1533 1533 1534 1534 1534 1535 1535 1535 1535 1535 1534 1534 1533 1533 1533 1532
1510 1511 1513 1515 1517 1518 1520 1521 1521 1522 1523 1524 1525 1525 1525 1525 1525 1526 1527 1527 1528 1528 1529 1529 1529 1528 1529 1529 1529 1529 1529 1530 1530 1530 1530 1531 1530 1530 1530 1529 1529 1529 1529
1510 1511 1512 1514 1516 1517 1519 1519 1520 1520 1521 1521 1521 1521 1521 1521 1522 1522 1522 1523 1523 1524 1524 1524 1524 1524 1524 1524 1524 1524 1524 1525 1525 1525 1525 1526 1526 1526 1526 1525 1525 1525 1525
1509 1510 1511 1512 1514 1515 1516 1517 1517 1517 1518 1518 1518 1518 1518 1518 1518 1518 1518 1518 1518 1519 1519 1519 1519 1519 1519 1519 1520 1519 1519 1519 1519 1519 1520 1521 1521 1521 1521 1521 1521 1521 1521
1507 1508 1510 1511 1512 1513 1514 1513 1514 1515 1514 1514 1514 1514 1513 1514 1514 1514 1514 1514 1514 1514 1515 1515 1515 1515 1515 1515 1515 1514 1514 1514 1514 1514 1515 1516 1516 1517 1517 1517 1517 1517 1517
1508 1509 1509 1510 1511 1511 1512 1512 1512 1512 1512 1512 1511 1511 1511 1511 1511 1510 1510 1509 1510 1510 1510 1510 1510 1510 1510 1510 1510 1510 1510 1509 1509 1509 1510 1511 1511 1512 1512 1512 1512 1512 1512
1507 1508 1508 1509 1509 1510 1510 1510 1510 1510 1510 1509 1508 1508 1507 1507 1506 1506 1506 1505 1505 1505 1506 1506 1506 1505 1505 1505 1505 1505 1505 1505 1504 1505 1505 1506 1506 1507 1507 1508 1507 1507 1508
1507 1507 1507 1507 1508 1508 1509 1508 1508 1508 1507 1507 1506 1505 1504 1504 1503 1502 1502 1502 1501 1501 1502 1502 1502 1501 1501 1500 1500 1501 1500 1500 1500 1500 1500 1501 1501 1502 1502 1503 1503 1503 1503
1506 1506 1506 1506 1506 1506 1506 1506 1506 1506 1505 1504 1503 1502 1501 1500 1500 1499 1498 1498 1498 1498 1498 1498 1497 1497 1496 1496 1496 1496 1495 1495 1494 1494 1494 1495 1495 1496 1497 1497 1498 1498 1499
1504 1505 1505 1505 1505 1505 1504 1504 1503 1503 1502 1501 1500 1499 1498 1497 1496 1495 1494 1493 1494 1494 1493 1493 1492 1492 1492 1491 1491 1491 1491 1490 1489 1489 1489 1489 1490 1491 1491 1492 1493 1494 1494
1503 1504 1503 1503 1503 1503 1502 1501 1501 1501 1500 1499 1497 1496 1495 1494 1493 1491 1491 1490 1490 1489 1489 1488 1487 1487 1487 1487 1486 1486 1486 1485 1485 1484 1484 1484 1485 1485 1486 1487 1488 1488 1489
1502 1502 1501 1501 1500 1500 1500 1499 1498 1498 1496 1495 1494 1492 1491 1490 1489 1487 1487 1487 1486 1485 1484 1483 1482 1482 1482 1482 1482 1481 1481 1480 1480 1479 1479 1480 1480 1480 1481 1482 1483 1483 1484
1500 1500 1499 1499 1498 1498 1497 1496 1495 1494 1492 1491 1490 1489 1487 1486 1484 1483 1482 1481 1481 1481 1480 1478 1478 1477 1477 1477 1477 1477 1477 1476 1476 1475 1475 1475 1475 1475 1476 1477 1478 1478 1479
1498 1498 1497 1496 1495 1495 1494 1492 1491 1490 1489 1487 1486 1484 1483 1481 1480 1479 1478 1477 1476 1475 1475 1474 1473 1472 1472 1472 1472 1472 1472 1472 1472 1471 1470 1470 1470 1471 1471 1472 1473 1474 1474